www.pogodaiklimat.ru

ПОГОДА в Морхеде, KY

  • Прогноз погоды в Морхеде
  • Монитор погоды в Морхеде
  • Климат в Морхеде

АРХИВ ПОГОДЫ в Морхеде

Время (UTC), дата Ветер
(напр.,м/с)
 
Видим.   Явления Облачность Т
(С)
Тd
(С)
f
(%)
Тe
(С)
Тes
(С)
Комфортность

P
(гПа)

Po
(гПа)
Тmin
(С)
Tmax
(С)
R
(мм)
SD
(см)
17:55 18.05 ЮЗ  16 км    2/2 1650 м
[средняя] 
+30.0  +17.0  46  +34  +44  очень
душно 
  977.3         
18:15 18.05 ЮЗ  16 км    ясно  +30.0  +16.0  43  +33  +39  душно    977.0         
18:35 18.05 Ю  16 км    ясно  +30.0  +16.0  43  +33  +48  душно    977.0         
18:40 18.05 нст  16 км    2/2 1800 м
[средняя] 
+30.0  +16.0  43  +33  +46  душно    977.0         
18:55 18.05 ЮЗ  4
{8} 
16 км    5/2 1800 м
[средняя] 
+30.0  +16.0  43  +33  +39  душно    976.6         
19:15 18.05 ЮЗ  16 км    ясно  +31.0  +15.0  38  +33  +37  душно    976.6         
19:35 18.05 ЮЗ  5
{8} 
16 км    ясно  +30.0  +15.0  40  +32  +38  жарко    976.6         
19:40 18.05 ЮЗ  4
{8} 
16 км    ясно  +30.0  +16.0  43  +33  +41  душно    976.6         
19:55 18.05 ЮЗ  3
{6} 
16 км    ясно  +30.0  +16.0  43  +33  +44  душно    976.3         
20:15 18.05 ЮЗ  16 км    ясно  +30.0  +16.0  43  +33  +37  душно    976.3         
20:35 18.05 ЮЗ  16 км    ясно  +30.0  +16.0  43  +33  +39  душно    976.6         
20:40 18.05 Ю  16 км    2/2 1800 м  +30.0  +16.0  43  +33  +38  душно    976.6         
20:55 18.05 ЮЗ  16 км    2/2 1950 м
[средняя] 
+29.0  +16.0  45  +32  +37  душно    976.3         
21:15 18.05 ЮЗ  16 км    2/0 2400 м
[средняя] 
+30.0  +16.0  43  +33  +36  душно    976.3         
21:35 18.05 Ю  16 км    ясно  +29.0  +16.0  45  +32  +36  душно    976.3         
21:55 18.05 ЮЗ  16 км    ясно  +29.0  +16.0  45  +32  +36  душно    976.3         
22:00 18.05 Ю  16 км    ясно  +29.0  +16.0  45  +32  +34  душно    976.3         
22:15 18.05   16 км    ясно  +28.0  +17.0  51  +32  +35  душно    976.3         
22:35 18.05   16 км    ясно  +28.0  +17.0  51  +32  +35  душно    976.3         
22:55 18.05   16 км    ясно  +28.0  +17.0  51  +32  +35  душно    976.3         
23:15 18.05   16 км    ясно  +27.0  +17.0  54  +31  +31  душно    976.3         
23:20 18.05 Ю  16 км    ясно  +26.0  +17.0  58  +30  +30  душно    976.3         
23:35 18.05 Ю  16 км    ясно  +25.0  +18.0  65  +29  +30  душно    976.3         
23:55 18.05 Ю  16 км    2/0 3600 м
[средняя] 
+25.0  +17.0  61  +29  +29  душно    976.3         
00:15 19.05 Ю  16 км    8/0 3600 м
[средняя] 
+25.0  +17.0  61  +29  +29  душно    976.3         
00:20 19.05 Ю  16 км    10/0 3600 м
[средняя] 
+25.0  +17.0  61  +29  +29  душно    976.3         
00:35 19.05 Ю  16 км    10/0 2250 м
[средняя] 
+25.0  +17.0  61  +29  +29  душно    976.3         
00:55 19.05 Ю  16 км    10/2 1950 м
[средняя] 
+25.0  +17.0  61  +29  +29  душно    976.3         
01:15 19.05 Ю  16 км    5/2 1950 м
[средняя] 
+24.0  +17.0  65  +28  +28  душно    976.3         
01:20 19.05 Ю  16 км    5/2 1950 м
[средняя] 
+24.0  +17.0  65  +28  +28  душно    976.3         
01:35 19.05 Ю  16 км    2/0 3600 м
[средняя] 
+24.0  +16.0  61  +27  +27  жарко    976.6         
01:55 19.05 Ю  16 км    2/0 3600 м
[средняя] 
+24.0  +16.0  61  +27  +27  жарко    976.6         
02:15 19.05 Ю  16 км    ясно  +23.0  +16.0  65  +27  +27  душно    976.6         
02:20 19.05 Ю  16 км    ясно  +23.0  +16.0  65  +27  +27  душно    976.6         
02:35 19.05 Ю  16 км    ясно  +23.0  +15.0  61  +27  +27  душно    977.0         
02:55 19.05 Ю  16 км    ясно  +23.0  +15.0  61  +27  +27  душно    976.6         
03:15 19.05 Ю  16 км    2/2 1650 м  +22.0  +15.0  64  +25  +25  комфорт    976.6         
03:20 19.05 Ю  3
{5} 
16 км    2/2 1650 м  +22.0  +15.0  64  +25  +25  комфорт    976.6         
03:35 19.05 Ю  16 км    ясно  +21.0  +15.0  69  +25  +25  комфорт    976.6         
03:55 19.05 Ю  16 км    ясно  +23.0  +15.0  61  +27  +27  душно    976.6         
04:15 19.05 Ю  16 км    2/2 1650 м  +22.0  +15.0  64  +25  +25  комфорт    976.6         
04:35 19.05 Ю  16 км    2/2 1500 м  +21.0  +15.0  69  +24  +24  комфорт    976.6         
04:55 19.05 Ю  16 км    2/2 1650 м  +22.0  +16.0  69  +26  +26  душно    976.6         
05:15 19.05 Ю  16 км    2/2 1500 м  +21.0  +16.0  73  +25  +25  комфорт    976.6         
05:35 19.05 Ю  16 км    ясно  +21.0  +16.0  73  +25  +25  комфорт    976.6         
05:40 19.05 Ю  16 км    ясно  +21.0  +16.0  73  +25  +25  комфорт    976.3         
05:55 19.05 Ю  16 км    ясно  +20.0  +16.0  78  +23  +23  комфорт    976.3         
06:15 19.05 Ю  16 км    ясно  +20.0  +16.0  78  +23  +23  комфорт    976.3         

 

Местоположение метеостанции Clyde A. Thomas Regional Airport: широта 38.2150 долгота -83.5874 высота над уровнем моря 319 м.

В архиве по умолчанию представлена погода в Морхеде за последние 1-2 суток. Обновление информации о фактической погоде в базе происходит ежечасно! Архивные данные за месяц целиком и за предыдущие месяцы Вы можете получить, выбрав интересующий диапазон дат из раскрывающегося списка и нажав кнопку "Ввод!".

Внимание! Архив погоды МЕТАР в базе сайта хранится не более 60 дней. Нет смысла пытаться выбрать более раннюю дату.

Внимание! Время в таблицах - всемирное. Для получения местного времени необходимо прибавить поправку, которая в Морхеде равна -5 ч.

Ветер - указаны скорость ветра в м/с и направление, откуда дует ветер: С - северный, СВ - северо-восточный, В - восточный, ЮВ - юго-восточный, Ю - южный, ЮЗ - юго-западный, З - западный, СЗ - северо-западный.
Видимость - горизонтальная дальность видимости в метрах или километрах. При видимости от 1 до 10 км при отсутствии осадков обычно наблюдается дымка, при ухудшении видимости до 1 км и менее - туман. В сухую погоду видимость может ухудшаться дымом, пылью или мглою.
Атмосферные явления - указаны явления, наблюдавшиеся в указанный момент времени.
Облачность - указаны через наклонную черту верхняя и нижняя облачность в баллах и высота нижней границы облаков в метрах. Внимание: облачность, как и прочие метеорологические величины в США измеряются автоматическими метеостанциями. Указанные значения в баллах носят условный характер и показывают процент времени, в течение которого, в среднем, лазерный луч высотомера отражался от облаков обратно.
T - Температура воздуха - температура, измеренная на высоте 2 м над землей.
Td - Температура точки росы - температура, при понижении до которой содержащийся в воздухе водяной пар достигнет насыщения.
f - Относительная влажность воздуха - влажноcть воздуха, измеренная на высоте 2 м над землей.
Te - Эффективная температура - температура, которую ощущает одетый по сезону человек в тени. Характеристика душности погоды. При расчете учитывается влияние влажности воздуха и скорости ветра на теплоощущения человека.
Tes - Эффективная температура на солнце - температура, которую ощущает человек, с поправкой на солнечный нагрев. Характеристика знойности погоды. Зависит от высоты солнца над горизонтом, облачности и скорости ветра. Ночью, в пасмурную погоду, а также при ветре 12 м/с и более поправка равна нулю.
P - Атмосферное давление - приведенное к уровню моря атмосферное давление.
Po - Атмосферное давление - измеренное на уровне метеостанции атмосферное давление.
Tmin - Минимальная температура - минимум температуры воздуха на высоте 2 м над землей.
Tmax - Максимальная температура - максимум температуры воздуха на высоте 2 м над землей.
R - Количество осадков - Количество выпавших осадков за 3 или 6 часов, мм.
SD - Снежный покров - Высота снежного покрова, см.